Weather History for Arlington, WA

Change the Weather History Date:

Sunday, January 27, 2013

  Actual Average Record
Temperature  
Mean Temperature 38 °F -  
Max Temperature 41 °F 41 °F 53 °F (2005)
Min Temperature 35 °F 27 °F 17 °F (1997)
Degree Days  
Heating Degree Days 27    
Moisture  
Dew Point 36 °F    
Average Humidity 90    
Maximum Humidity 93    
Minimum Humidity 87    
Precipitation  
Precipitation 0.06 in - - ()
Sea Level Pressure  
Sea Level Pressure 30.03 in    
Wind  
Wind Speed 3 mph (SSE)    
Max Wind Speed 10 mph    
Max Gust Speed -    
Visibility 9 miles    
Events      
Averages and records for this station are not official NWS values.
T = Trace of Precipitation, MM = Missing Value Source: NWS Daily Summary

Daily Weather History Graph

Daily Weather History Graph

Search for Another Location

Airport:

Trip Planner

Search our weather history database for the weather conditions in past years. The results will help you decide how hot, cold, wet, or windy it might be!

Date:

Astronomy

Jan. 27, 2013 Rise Set
Actual Time 7:42 AM PST 5:01 PM PST
Civil Twilight 7:08 AM PST 5:34 PM PST
Nautical Twilight 6:30 AM PST 6:12 PM PST
Astronomical Twilight 5:54 AM PST 6:49 PM PST
Moon 6:09 PM PST (1/27) 7:31 AM PST (1/27)
Length of Visible Light 10h 26m
Length of Day
9h 18m
Full, 100% of the Moon is Illuminated
Jan 27
Full
Feb 3
Last Quarter
Feb 9
New
Feb 17
First Quarter
Feb 25
Full

Hourly Weather History & Observations

Time (PST) Temp. Windchill Dew Point Humidity Pressure Visibility Wind Dir Wind Speed Gust Speed Precip Events Conditions
12:15 AM 37.4 °F - 35.6 °F 93% 30.04 in 10.0 mi Calm Calm - N/A   Mostly Cloudy
12:35 AM 37.4 °F - 35.6 °F 93% 30.04 in 6.0 mi Calm Calm - N/A   Overcast
12:55 AM 39.2 °F - 35.6 °F 87% 30.04 in 10.0 mi Calm Calm - N/A   Overcast
1:15 AM 37.4 °F - 35.6 °F 93% 30.04 in 7.0 mi Calm Calm - N/A   Overcast
1:35 AM 37.4 °F - 35.6 °F 93% 30.04 in 10.0 mi Calm Calm - N/A   Overcast
1:55 AM 37.4 °F - 35.6 °F 93% 30.04 in 10.0 mi Calm Calm - N/A   Overcast
2:15 AM 37.4 °F - 35.6 °F 93% 30.05 in 5.0 mi Calm Calm - N/A   Overcast
2:35 AM 39.2 °F - 37.4 °F 93% 30.05 in 8.0 mi Calm Calm - N/A   Overcast
2:55 AM 39.2 °F - 35.6 °F 87% 30.05 in 10.0 mi Calm Calm - N/A   Overcast
3:15 AM 39.2 °F - 37.4 °F 93% 30.04 in 10.0 mi Calm Calm - N/A   Overcast
3:35 AM 37.4 °F 32.1 °F 35.6 °F 93% 30.05 in 5.0 mi NNW 6.9 mph - N/A   Overcast
3:55 AM 39.2 °F - 37.4 °F 93% 30.05 in 7.0 mi Calm Calm - N/A   Overcast
4:15 AM 39.2 °F 35.9 °F 35.6 °F 87% 30.05 in 7.0 mi South 4.6 mph - 0.01 in   Overcast
4:35 AM 37.4 °F 34.9 °F 35.6 °F 93% 30.04 in 10.0 mi SSE 3.5 mph - 0.01 in   Overcast
4:55 AM 37.4 °F 33.8 °F 35.6 °F 93% 30.05 in 10.0 mi SSE 4.6 mph - 0.01 in   Overcast
5:15 AM 39.2 °F 35.0 °F 35.6 °F 87% 30.04 in 10.0 mi SSE 5.8 mph - N/A   Overcast
5:35 AM 39.2 °F 34.2 °F 35.6 °F 87% 30.04 in 10.0 mi SE 6.9 mph - N/A   Overcast
5:55 AM 37.4 °F 34.9 °F 35.6 °F 93% 30.04 in 10.0 mi South 3.5 mph - N/A   Overcast
6:15 AM 37.4 °F - 35.6 °F 93% 30.04 in 10.0 mi Calm Calm - N/A   Overcast
6:35 AM 37.4 °F 33.8 °F 35.6 °F 93% 30.04 in 10.0 mi South 4.6 mph - N/A   Overcast
6:55 AM 37.4 °F 32.1 °F 35.6 °F 93% 30.04 in 10.0 mi SSE 6.9 mph - N/A   Overcast
7:15 AM 37.4 °F 34.9 °F 35.6 °F 93% 30.04 in 10.0 mi SSE 3.5 mph - N/A   Overcast
7:35 AM 37.4 °F 32.1 °F 35.6 °F 93% 30.04 in 10.0 mi SSE 6.9 mph - N/A   Overcast
7:55 AM 39.2 °F 35.0 °F 35.6 °F 87% 30.05 in 10.0 mi South 5.8 mph - N/A   Overcast
8:15 AM 39.2 °F 33.6 °F 35.6 °F 87% 30.05 in 10.0 mi SSE 8.1 mph - N/A   Overcast
8:35 AM 39.2 °F 34.2 °F 35.6 °F 87% 30.05 in 10.0 mi SSE 6.9 mph - N/A   Overcast
8:55 AM 39.2 °F 34.2 °F 35.6 °F 87% 30.05 in 10.0 mi SSE 6.9 mph - N/A   Overcast
9:15 AM 39.2 °F 35.0 °F 37.4 °F 93% 30.05 in 10.0 mi SSE 5.8 mph - N/A   Overcast
9:35 AM 39.2 °F 33.6 °F 37.4 °F 93% 30.05 in 10.0 mi SSE 8.1 mph - N/A   Overcast
9:55 AM 39.2 °F 34.2 °F 37.4 °F 93% 30.06 in 10.0 mi South 6.9 mph - N/A   Overcast
10:15 AM 39.2 °F 34.2 °F 37.4 °F 93% 30.06 in 10.0 mi South 6.9 mph - N/A   Overcast
10:35 AM 39.2 °F 33.0 °F 37.4 °F 93% 30.06 in 10.0 mi South 9.2 mph - N/A   Overcast
10:55 AM 41.0 °F 36.4 °F 37.4 °F 87% 30.06 in 10.0 mi SSE 6.9 mph - N/A   Overcast
11:15 AM 41.0 °F 36.4 °F 37.4 °F 87% 30.06 in 10.0 mi South 6.9 mph - N/A   Overcast
11:35 AM 41.0 °F 38.0 °F 37.4 °F 87% 30.05 in 10.0 mi SSE 4.6 mph - N/A   Overcast
11:55 AM 41.0 °F 36.4 °F 37.4 °F 87% 30.04 in 10.0 mi SSE 6.9 mph - N/A   Overcast
12:15 PM 41.0 °F 34.7 °F 37.4 °F 87% 30.04 in 10.0 mi South 10.4 mph - N/A   Overcast
12:35 PM 41.0 °F 36.4 °F 37.4 °F 87% 30.03 in 10.0 mi South 6.9 mph - N/A   Overcast
12:55 PM 41.0 °F 38.0 °F 37.4 °F 87% 30.02 in 10.0 mi South 4.6 mph - N/A   Overcast
1:15 PM 41.0 °F 39.0 °F 37.4 °F 87% 30.01 in 10.0 mi South 3.5 mph - N/A   Overcast
1:35 PM 41.0 °F 37.1 °F 37.4 °F 87% 30.01 in 10.0 mi South 5.8 mph - N/A   Overcast
1:55 PM 41.0 °F 36.4 °F 37.4 °F 87% 30.00 in 10.0 mi SSE 6.9 mph - N/A   Overcast
2:15 PM 41.0 °F 35.8 °F 37.4 °F 87% 30.00 in 10.0 mi South 8.1 mph - N/A   Overcast
2:35 PM 41.0 °F 35.2 °F 37.4 °F 87% 30.00 in 10.0 mi South 9.2 mph - N/A   Overcast
2:55 PM 41.0 °F 34.7 °F 37.4 °F 87% 30.01 in 10.0 mi South 10.4 mph - N/A   Overcast
3:15 PM 39.2 °F 33.0 °F 37.4 °F 93% 30.00 in 10.0 mi SSE 9.2 mph - N/A   Overcast
3:35 PM 39.2 °F 33.6 °F 37.4 °F 93% 30.00 in 10.0 mi South 8.1 mph - N/A   Overcast
3:55 PM 39.2 °F 35.0 °F 37.4 °F 93% 30.01 in 10.0 mi South 5.8 mph - N/A   Overcast
4:15 PM 39.2 °F 34.2 °F 37.4 °F 93% 30.01 in 10.0 mi South 6.9 mph - N/A   Overcast
4:35 PM 39.2 °F 35.0 °F 37.4 °F 93% 30.00 in 10.0 mi SSE 5.8 mph - 0.01 in   Overcast
4:55 PM 39.2 °F 34.2 °F 35.6 °F 87% 30.00 in 10.0 mi SSE 6.9 mph - 0.01 in   Overcast
5:15 PM 39.2 °F 33.6 °F 35.6 °F 87% 30.00 in 10.0 mi SSE 8.1 mph - N/A   Overcast
5:35 PM 37.4 °F 32.8 °F 35.6 °F 93% 30.00 in 10.0 mi SE 5.8 mph - N/A   Overcast
5:55 PM 37.4 °F 33.8 °F 35.6 °F 93% 30.01 in 10.0 mi NNE 4.6 mph - N/A   Overcast
6:15 PM 37.4 °F - 33.8 °F 87% 30.01 in 10.0 mi Calm Calm - N/A   Overcast
6:35 PM 37.4 °F 33.8 °F 33.8 °F 87% 30.01 in 10.0 mi NNE 4.6 mph - 0.01 in   Overcast
6:55 PM 37.4 °F - 33.8 °F 87% 30.01 in 6.0 mi Calm Calm - 0.02 in   Overcast
7:15 PM 37.4 °F - 33.8 °F 87% 30.02 in 7.0 mi Calm Calm - 0.01 in   Overcast
7:35 PM 37.4 °F - 33.8 °F 87% 30.02 in 9.0 mi Calm Calm - 0.01 in   Overcast
7:55 PM 37.4 °F - 33.8 °F 87% 30.02 in 10.0 mi Calm Calm - 0.01 in   Overcast
8:15 PM 37.4 °F - 33.8 °F 87% 30.01 in 10.0 mi Calm Calm - N/A   Overcast
8:35 PM 35.6 °F - 33.8 °F 93% 30.01 in 8.0 mi Calm Calm - N/A   Overcast
8:55 PM 37.4 °F - 35.6 °F 93% 30.01 in 8.0 mi Calm Calm - N/A   Overcast
9:15 PM 37.4 °F - 35.6 °F 93% 30.00 in 10.0 mi Calm Calm - N/A   Overcast
9:35 PM 37.4 °F - 35.6 °F 93% 30.00 in 10.0 mi Calm Calm - N/A   Overcast
9:55 PM 37.4 °F 33.8 °F 35.6 °F 93% 30.00 in 10.0 mi SSE 4.6 mph - N/A   Overcast
10:15 PM 37.4 °F - 35.6 °F 93% 30.00 in 10.0 mi Calm Calm - 0.01 in   Overcast
10:35 PM 37.4 °F - 35.6 °F 93% 30.01 in 9.0 mi Calm Calm - 0.01 in   Overcast
10:55 PM 37.4 °F - 35.6 °F 93% 30.02 in 7.0 mi Calm Calm - 0.01 in   Overcast
11:15 PM 37.4 °F - 35.6 °F 93% 30.01 in 7.0 mi Calm Calm - N/A   Overcast
11:35 PM 37.4 °F - 35.6 °F 93% 30.01 in 10.0 mi Calm Calm - N/A   Overcast
11:55 PM 37.4 °F 32.8 °F 35.6 °F 93% 30.01 in 10.0 mi SSE 5.8 mph - N/A   Overcast